TimeCDT,TemperatureF,Dew PointF,Humidity,Sea Level PressureIn,VisibilityMPH,Wind Direction,Wind SpeedMPH,Gust SpeedMPH,PrecipitationIn,Events,Conditions,WindDirDegrees,DateUTC
12:15 AM,52.9,48.6,85,30.05,10.0,NNW,5.8,-,N/A,,Overcast,340,2013-05-23 05:15:00
12:35 AM,53.1,48.6,85,30.06,10.0,North,10.4,16.1,N/A,,Overcast,360,2013-05-23 05:35:00
12:55 AM,52.9,48.6,85,30.06,10.0,North,11.5,-,N/A,,Overcast,350,2013-05-23 05:55:00
1:15 AM,52.9,48.7,86,30.07,10.0,NNW,9.2,-,N/A,,Overcast,340,2013-05-23 06:15:00
1:35 AM,52.9,48.6,85,30.07,10.0,North,6.9,-,N/A,,Overcast,350,2013-05-23 06:35:00
1:55 AM,52.9,48.6,85,30.07,10.0,North,10.4,-,N/A,,Overcast,350,2013-05-23 06:55:00
2:15 AM,52.7,48.7,86,30.07,10.0,North,6.9,-,N/A,,Overcast,350,2013-05-23 07:15:00
2:35 AM,52.5,49.1,88,30.08,10.0,NNW,8.1,-,N/A,,Overcast,340,2013-05-23 07:35:00
2:55 AM,52.5,48.9,88,30.08,10.0,NNW,6.9,-,N/A,,Overcast,340,2013-05-23 07:55:00
3:15 AM,52.3,49.1,89,30.08,5.0,NW,5.8,-,N/A,,Overcast,320,2013-05-23 08:15:00
3:35 AM,51.8,49.3,91,30.08,10.0,NNW,5.8,-,N/A,,Overcast,330,2013-05-23 08:35:00
3:55 AM,52.2,49.5,91,30.09,10.0,NNW,6.9,-,N/A,,Overcast,330,2013-05-23 08:55:00
4:15 AM,52.7,49.5,89,30.09,10.0,North,3.5,-,N/A,,Overcast,350,2013-05-23 09:15:00
4:35 AM,53.1,49.1,86,30.10,10.0,North,9.2,-,N/A,,Overcast,360,2013-05-23 09:35:00
4:55 AM,52.7,47.8,84,30.11,10.0,North,13.8,-,N/A,,Overcast,360,2013-05-23 09:55:00
5:15 AM,52.2,47.1,83,30.12,10.0,NNE,6.9,-,N/A,,Overcast,20,2013-05-23 10:15:00
5:35 AM,52.0,46.8,82,30.12,10.0,NNE,10.4,16.1,N/A,,Overcast,20,2013-05-23 10:35:00
5:55 AM,51.6,46.8,83,30.13,10.0,NNE,11.5,18.4,N/A,,Overcast,20,2013-05-23 10:55:00
6:15 AM,50.9,46.4,85,30.15,10.0,NNE,10.4,-,N/A,,Overcast,30,2013-05-23 11:15:00
6:35 AM,50.9,46.4,85,30.16,10.0,North,9.2,-,N/A,,Overcast,10,2013-05-23 11:35:00
6:55 AM,50.9,46.4,85,30.16,10.0,NNE,9.2,-,N/A,,Overcast,30,2013-05-23 11:55:00
7:15 AM,51.1,46.4,84,30.17,10.0,NNE,10.4,-,N/A,,Overcast,20,2013-05-23 12:15:00
7:35 AM,51.6,46.6,83,30.18,10.0,NNE,10.4,-,N/A,,Overcast,30,2013-05-23 12:35:00
7:55 AM,52.3,46.8,81,30.19,10.0,NE,9.2,-,N/A,,Overcast,50,2013-05-23 12:55:00
8:15 AM,52.3,46.6,81,30.21,10.0,NE,9.2,-,N/A,,Overcast,40,2013-05-23 13:15:00
8:35 AM,52.9,46.8,80,30.21,10.0,NNE,11.5,-,N/A,,Overcast,30,2013-05-23 13:35:00
8:55 AM,53.6,46.8,78,30.21,10.0,NE,12.7,-,N/A,,Overcast,40,2013-05-23 13:55:00
9:15 AM,54.5,46.8,75,30.21,10.0,NE,12.7,-,N/A,,Mostly Cloudy,50,2013-05-23 14:15:00
9:35 AM,55.6,47.3,74,30.21,10.0,ENE,15.0,19.6,N/A,,Mostly Cloudy,60,2013-05-23 14:35:00
9:55 AM,56.8,48.0,72,30.22,10.0,NE,10.4,-,N/A,,Scattered Clouds,50,2013-05-23 14:55:00
10:15 AM,58.1,47.8,69,30.24,10.0,ENE,8.1,-,N/A,,Scattered Clouds,60,2013-05-23 15:15:00
10:35 AM,59.0,47.5,66,30.23,10.0,East,8.1,-,N/A,,Scattered Clouds,80,2013-05-23 15:35:00
10:55 AM,60.3,47.5,63,30.22,10.0,ENE,11.5,17.3,N/A,,Clear,70,2013-05-23 15:55:00
11:15 AM,61.9,47.1,58,30.21,10.0,ENE,16.1,20.7,N/A,,Clear,70,2013-05-23 16:15:00
11:35 AM,62.8,46.6,55,30.20,10.0,ENE,13.8,23.0,N/A,,Clear,60,2013-05-23 16:35:00
11:55 AM,64.0,45.7,51,30.20,10.0,East,15.0,21.9,N/A,,Clear,80,2013-05-23 16:55:00
12:15 PM,64.9,43.2,45,30.20,10.0,East,16.1,23.0,N/A,,Clear,80,2013-05-23 17:15:00
12:35 PM,66.2,43.9,44,30.20,10.0,East,17.3,24.2,N/A,,Clear,90,2013-05-23 17:35:00
12:55 PM,66.6,43.0,42,30.20,10.0,East,16.1,27.6,N/A,,Clear,100,2013-05-23 17:55:00
1:15 PM,67.5,43.2,41,30.20,10.0,East,20.7,26.5,N/A,,Clear,90,2013-05-23 18:15:00
1:35 PM,68.0,43.3,41,30.20,10.0,East,16.1,21.9,N/A,,Clear,80,2013-05-23 18:35:00
1:55 PM,68.0,43.0,40,30.20,10.0,East,16.1,25.3,N/A,,Clear,100,2013-05-23 18:55:00
2:15 PM,68.9,41.9,37,30.20,10.0,East,15.0,23.0,N/A,,Clear,90,2013-05-23 19:15:00
2:35 PM,69.1,42.6,38,30.20,10.0,ESE,11.5,20.7,N/A,,Clear,110,2013-05-23 19:35:00
2:55 PM,69.3,42.4,38,30.20,10.0,East,15.0,21.9,N/A,,Clear,100,2013-05-23 19:55:00
3:15 PM,70.0,42.3,37,30.20,10.0,ENE,15.0,19.6,N/A,,Clear,70,2013-05-23 20:15:00
3:35 PM,70.0,41.4,35,30.20,10.0,ESE,12.7,21.9,N/A,,Clear,110,2013-05-23 20:35:00
3:55 PM,70.0,41.7,36,30.20,10.0,SE,18.4,23.0,N/A,,Clear,130,2013-05-23 20:55:00
4:15 PM,70.7,41.0,34,30.19,10.0,ESE,9.2,18.4,N/A,,Clear,120,2013-05-23 21:15:00
4:35 PM,70.7,41.0,34,30.19,10.0,East,11.5,18.4,N/A,,Clear,100,2013-05-23 21:35:00
4:55 PM,71.6,41.9,34,30.18,10.0,ESE,13.8,20.7,N/A,,Clear,110,2013-05-23 21:55:00
5:15 PM,71.2,39.7,32,30.18,10.0,East,15.0,19.6,N/A,,Clear,90,2013-05-23 22:15:00
5:35 PM,71.4,39.7,32,30.18,10.0,East,13.8,17.3,N/A,,Clear,100,2013-05-23 22:35:00
5:55 PM,71.6,41.4,33,30.18,10.0,ESE,11.5,17.3,N/A,,Clear,120,2013-05-23 22:55:00
6:15 PM,71.2,40.6,33,30.18,10.0,ESE,10.4,20.7,N/A,,Clear,120,2013-05-23 23:15:00
6:35 PM,71.1,41.0,34,30.18,10.0,ESE,15.0,19.6,N/A,,Clear,120,2013-05-23 23:35:00
6:55 PM,70.7,40.6,34,30.18,10.0,ESE,13.8,-,N/A,,Clear,120,2013-05-23 23:55:00
7:15 PM,70.0,40.5,34,30.18,10.0,SE,12.7,-,N/A,,Clear,130,2013-05-24 00:15:00
7:35 PM,68.9,40.8,36,30.17,10.0,ESE,12.7,-,N/A,,Clear,120,2013-05-24 00:35:00
7:55 PM,67.6,42.3,40,30.17,10.0,SE,10.4,-,N/A,,Clear,140,2013-05-24 00:55:00
8:15 PM,67.3,39.4,36,30.17,10.0,SE,11.5,-,N/A,,Clear,130,2013-05-24 01:15:00
8:35 PM,65.5,40.6,40,30.18,10.0,ESE,8.1,-,N/A,,Clear,120,2013-05-24 01:35:00
8:55 PM,62.8,41.2,45,30.18,10.0,ESE,8.1,-,N/A,,Clear,120,2013-05-24 01:55:00
9:15 PM,62.8,40.6,44,30.18,10.0,ESE,8.1,-,N/A,,Clear,120,2013-05-24 02:15:00
9:35 PM,62.1,40.3,45,30.18,10.0,ESE,6.9,-,N/A,,Clear,120,2013-05-24 02:35:00
9:55 PM,58.6,41.9,54,30.19,10.0,SE,5.8,-,N/A,,Clear,130,2013-05-24 02:55:00
10:15 PM,57.9,42.1,56,30.20,10.0,ESE,5.8,-,N/A,,Clear,120,2013-05-24 03:15:00
10:35 PM,57.4,42.4,57,30.21,10.0,ESE,5.8,-,N/A,,Clear,120,2013-05-24 03:35:00
10:55 PM,59.5,41.4,51,30.22,10.0,ESE,5.8,-,N/A,,Clear,110,2013-05-24 03:55:00
11:15 PM,56.7,41.5,57,30.22,10.0,East,4.6,-,N/A,,Clear,100,2013-05-24 04:15:00
11:35 PM,56.7,41.4,57,30.22,10.0,ESE,5.8,-,N/A,,Clear,110,2013-05-24 04:35:00
11:55 PM,57.0,41.7,57,30.22,10.0,ESE,6.9,-,N/A,,Clear,120,2013-05-24 04:55:00